[[{"header":{"parameterUnit":"m.s-1","parameterCategory":1,"la1":30.2991,"la2":30.254,"lo1":-89.0895,"lo2":-89.0444,"dy":0.0017,"dx":0.0017,"nx":28,"ny":28,"refTime":"2025-08-21T03:00:00:Z","depth":0,"parameterNumber":2,"parameterNumberName":"U-component_of_WINDS"},"data":[0,0,0,0,0,0,0,0,0,0,0,0,0,0,0,0,0,0,0,0,0,0,0,0,0,0,0,0,0,0,0,0,0,0,0,0,0,0,0,0,0,0,0,0,0,0,0,0,0,0,0,0,0,0,0,0,0,0,-2.2731,-2.2731,0,-2.2649,-2.2648,-2.2647,-2.2569,-2.2568,-2.2567,-2.2566,-2.2481,-2.248,-2.2478,0,0,0,0,0,0,0,0,0,0,0,0,0,-2.2823,-2.2822,-2.2732,-2.2731,-2.273,-2.2649,-2.2648,-2.2647,-2.2569,-2.2568,-2.2566,-2.2565,-2.2481,-2.248,-2.2478,0,0,0,0,0,0,0,0,0,0,0,0,0,-2.2766,-2.2821,-2.2732,-2.2681,-2.2675,-2.2649,-2.2648,-2.2647,-2.2569,-2.2567,-2.2566,-2.2565,-2.2482,-2.248,-2.2478,-2.2496,0,0,-2.2472,-2.2471,0,0,0,0,0,0,0,0,-2.2769,-2.2763,-2.2689,-2.2684,-2.2678,-2.2618,-2.2649,-2.2596,-2.2569,-2.2609,-2.2566,-2.2564,-2.2528,-2.2522,-2.2509,-2.2492,-2.2488,-2.2472,-2.2471,-2.247,-2.2469,0,0,0,0,0,0,0,-2.2773,-2.2766,-2.2699,-2.2688,-2.2682,-2.2663,-2.2653,-2.2639,-2.2578,-2.2606,-2.26,-2.2591,-2.2524,-2.2512,-2.2507,-2.2487,-2.2472,-2.247,-2.2469,-2.2468,-2.248,-2.2482,0,0,0,0,0,0,-2.2785,-2.277,-2.2701,-2.2696,-2.2721,-2.2662,-2.2651,-2.2639,-2.2578,-2.2567,-2.2593,-2.2588,-2.2516,-2.2509,-2.2504,-2.252,-2.247,-2.2468,-2.2467,-2.2479,-2.2481,-2.2482,0,0,0,0,0,0,-2.2787,-2.278,-2.2705,-2.2731,-2.272,-2.2662,-2.2649,-2.2638,-2.2625,-2.2568,-2.2557,-2.2591,-2.2514,-2.2506,-2.2498,-2.2516,-2.2467,-2.2465,-2.2477,-2.2479,-2.2481,-2.2553,0,0,0,0,0,0,-2.279,-2.2781,-2.2786,-2.2732,-2.2719,-2.2701,-2.265,-2.2637,-2.2622,-2.2615,-2.2563,-2.2553,-2.2513,-2.2502,-2.2496,-2.2512,-2.2464,-2.2475,-2.2478,-2.2481,-2.2549,-2.2558,-2.2565,0,0,0,0,0,-2.2794,-2.281,-2.2787,-2.2779,-2.2725,-2.2702,-2.2694,-2.2647,-2.2623,-2.2629,-2.2593,-2.2555,-2.2516,-2.2502,-2.2495,-2.2511,-2.2474,-2.2477,-2.2481,-2.2545,-2.2556,-2.2565,0,0,0,0,0,0,-2.2867,-2.2802,-2.2776,-2.2774,-2.2745,-2.2688,-2.2693,-2.266,-2.2636,-2.263,-2.2573,-2.2562,-2.2561,-2.2535,-2.2521,-2.2525,-2.249,-2.2492,-2.2541,-2.2551,-2.2559,-2.2564,-2.2462,0,0,0,0,0,-2.2883,-2.2869,-2.2813,-2.2818,-2.2804,-2.2752,-2.274,-2.2707,-2.2673,-2.266,-2.2623,-2.2592,-2.2572,-2.2561,-2.254,-2.2546,-2.2534,-2.2554,-2.2562,-2.2569,-2.2571,-2.2573,-2.2581,-2.2494,-2.2494,-2.2493,0,0,-2.2916,-2.2879,-2.2873,-2.2832,-2.2804,-2.2792,-2.2741,-2.273,-2.272,-2.2658,-2.2647,-2.262,-2.2582,-2.2581,-2.2579,-2.256,-2.2593,-2.2573,-2.2579,-2.2577,-2.2577,-2.2586,-2.2593,-2.2496,-2.2495,-2.2495,0,0,-2.2968,-2.2939,-2.294,-2.2914,-2.2874,-2.2839,-2.284,-2.279,-2.2769,-2.2758,-2.2712,-2.27,-2.2668,-2.2643,-2.2626,-2.2673,-2.2637,-2.2668,-2.2709,-2.2712,-2.2719,-2.2724,-2.274,-2.2747,-2.267,-2.2671,-2.2671,0,-2.3014,-2.2993,-2.2944,-2.2936,-2.2919,-2.2864,-2.2864,-2.2842,-2.2797,-2.2787,-2.2767,-2.2726,-2.2696,-2.2689,-2.2701,-2.269,-2.2688,-2.2672,-2.2722,-2.2727,-2.2732,-2.2746,-2.2752,-2.2674,-2.2674,-2.2674,-2.2673,0,-2.3051,-2.3037,-2.3043,-2.3001,-2.2985,-2.2982,-2.2933,-2.2923,-2.2893,-2.2861,-2.2852,-2.2815,-2.2786,-2.2782,-2.2752,-2.2772,-2.2761,-2.2732,-2.2695,-2.2745,-2.2757,-2.2763,-2.268,-2.2679,-2.2677,-2.2676,0,0,-2.3144,-2.3078,-2.308,-2.3061,-2.3014,-2.3003,-2.2998,-2.297,-2.2962,-2.2935,-2.2928,-2.2904,-2.2878,-2.2859,-2.2826,-2.2828,-2.2868,-2.2799,-2.2797,-2.2812,-2.2887,-2.2907,-2.2915,-2.2845,-2.2846,-2.2847,-2.289,0,-2.3187,-2.3173,-2.3131,-2.313,-2.3117,-2.3066,-2.3062,-2.3033,-2.3004,-2.299,-2.2958,-2.2941,-2.2908,-2.2896,-2.2897,-2.2863,-2.2882,-2.2859,-2.2838,-2.2838,-2.2847,-2.2921,-2.2942,-2.2984,-2.2894,-2.2895,-2.2896,0,-2.3235,-2.3211,-2.3209,-2.3164,-2.3157,-2.3154,-2.3125,-2.3112,-2.3079,-2.3058,-2.3039,-2.3003,-2.2995,-2.2963,-2.2951,-2.2937,-2.2927,-2.2909,-2.291,-2.2904,-2.2868,-2.2916,-2.2997,-2.3003,-2.2903,-2.2903,-2.2902,0,-2.3302,-2.3269,-2.3264,-2.325,-2.3197,-2.3196,-2.3174,-2.314,-2.3126,-2.3102,-2.3093,-2.3069,-2.3055,-2.3038,-2.2996,-2.2977,-2.299,-2.2954,-2.2972,-2.2973,-2.2974,-2.2974,-2.3053,-2.2972,-2.2971,-2.2971,-2.2971,0,-2.3354,-2.3354,-2.3293,-2.329,-2.329,-2.3242,-2.3243,-2.3217,-2.3187,-2.3178,-2.3134,-2.3126,-2.3073,-2.306,-2.3028,-2.3024,-2.3018,-2.3001,-2.2992,-2.3003,-2.3006,-2.2994,-2.2989,-2.2973,-2.2973,-2.2972,-2.2972,0,-2.3427,-2.3386,-2.3377,-2.3329,-2.3317,-2.3319,-2.3278,-2.3273,-2.3243,-2.3232,-2.3227,-2.318,-2.3162,-2.312,-2.3091,-2.307,-2.3073,-2.3058,-2.3084,-2.3078,-2.3098,-2.3096,-2.317,-2.3177,-2.3093,-2.3094,-2.3095,0,-2.3461,-2.346,-2.3413,-2.3404,-2.3384,-2.337,-2.3356,-2.3311,-2.3299,-2.3263,-2.3263,-2.3242,-2.3222,-2.3197,-2.316,-2.3138,-2.3121,-2.3149,-2.3117,-2.3129,-2.312,-2.312,-2.3119,-2.3155,-2.3156,-2.3157,-2.3158,0,-2.3527,-2.3507,-2.3489,-2.3465,-2.345,-2.3429,-2.3405,-2.34,-2.3349,-2.3338,-2.332,-2.3305,-2.3276,-2.3256,-2.3229,-2.3207,-2.3174,-2.3168,-2.3171,-2.3182,-2.3196,-2.3187,-2.3101,-2.3166,-2.3165,-2.3165,-2.3164,-2.3164,-2.358,-2.3577,-2.3544,-2.3526,-2.3504,-2.3483,-2.3476,-2.3446,-2.343,-2.3403,-2.3378,-2.3363,-2.3332,-2.3292,-2.3273,-2.326,-2.3243,-2.3247,-2.3248,-2.3249,-2.3254,-2.3201,-2.3255,-2.3255,-2.3255,-2.3255,-2.3254,0,-2.3642,-2.3619,-2.3603,-2.3571,-2.3558,-2.3529,-2.3502,-2.3492,-2.3479,-2.3453,-2.3436,-2.3415,-2.3396,-2.336,-2.3337,-2.3335,-2.3319,-2.333,-2.3329,-2.3324,-2.3271,-2.327,-2.3343,-2.3343,-2.3343,-2.3343,-2.3343,-2.3343,-2.3672,-2.3666,-2.3643,-2.3627,-2.3603,-2.3587,-2.3575,-2.3556,-2.3535,-2.3514,-2.3498,-2.3475,-2.3445,-2.342,-2.3402,-2.3392,-2.3385,-2.3401,-2.3386,-2.3336,-2.3328,-2.332,-2.3319,-2.34,-2.3401,-2.3439,-2.344,-2.344]},{"header":{"parameterUnit":"m.s-1","parameterCategory":1,"la1":30.2991,"la2":30.254,"lo1":-89.0895,"lo2":-89.0444,"dy":0.0017,"dx":0.0017,"nx":28,"ny":28,"refTime":"2025-08-21T03:00:00:Z","depth":0,"parameterNumber":3,"parameterNumberName":"V-component_of_WINDS"},"data":[0,0,0,0,0,0,0,0,0,0,0,0,0,0,0,0,0,0,0,0,0,0,0,0,0,0,0,0,0,0,0,0,0,0,0,0,0,0,0,0,0,0,0,0,0,0,0,0,0,0,0,0,0,0,0,0,0,0,3.4648,3.4648,0,3.4664,3.4664,3.4664,3.4728,3.4729,3.473,3.4732,3.4742,3.4741,3.4739,0,0,0,0,0,0,0,0,0,0,0,0,0,3.4667,3.4666,3.4648,3.4648,3.4648,3.4664,3.4664,3.4664,3.4727,3.4729,3.4731,3.4733,3.4742,3.4741,3.4739,0,0,0,0,0,0,0,0,0,0,0,0,0,3.4668,3.4666,3.4648,3.4682,3.4685,3.4664,3.4664,3.4664,3.4727,3.4729,3.4731,3.4733,3.4742,3.4741,3.4739,3.4684,0,0,3.4734,3.4733,0,0,0,0,0,0,0,0,3.4668,3.4667,3.4676,3.4679,3.4683,3.4696,3.4674,3.4671,3.4726,3.4711,3.4732,3.4734,3.4724,3.4724,3.4722,3.4685,3.4685,3.4734,3.4733,3.4732,3.4732,0,0,0,0,0,0,0,3.4668,3.4667,3.4654,3.4676,3.468,3.4695,3.4697,3.4674,3.4704,3.4712,3.4717,3.4718,3.4726,3.4724,3.4723,3.4685,3.4734,3.4732,3.4731,3.4731,3.4605,3.4602,0,0,0,0,0,0,3.4664,3.4666,3.4653,3.4654,3.4681,3.4692,3.4695,3.4689,3.4705,3.471,3.4716,3.4721,3.4725,3.4725,3.4723,3.4661,3.4732,3.4731,3.473,3.4607,3.4604,3.4602,0,0,0,0,0,0,3.4664,3.4662,3.4653,3.4662,3.4662,3.469,3.4682,3.4688,3.4686,3.4708,3.4713,3.4708,3.4727,3.4726,3.4694,3.4662,3.473,3.4728,3.461,3.4606,3.4603,3.4534,0,0,0,0,0,0,3.4664,3.4662,3.4642,3.4661,3.4661,3.4624,3.4681,3.4687,3.4684,3.469,3.4702,3.4706,3.4729,3.4696,3.4692,3.4661,3.4727,3.4613,3.4608,3.4604,3.4539,3.4529,3.452,0,0,0,0,0,3.4665,3.462,3.4641,3.4639,3.4637,3.4622,3.4622,3.4651,3.4681,3.4661,3.4675,3.4706,3.4666,3.4693,3.4689,3.4656,3.4615,3.4609,3.4604,3.4544,3.4531,3.452,0,0,0,0,0,0,3.4594,3.4623,3.4646,3.4607,3.4612,3.4633,3.4609,3.4636,3.4631,3.4637,3.4671,3.4673,3.4637,3.4643,3.4672,3.4604,3.4646,3.4639,3.4601,3.4589,3.4579,3.4578,3.4726,0,0,0,0,0,3.4575,3.4562,3.4587,3.455,3.4552,3.458,3.4574,3.4597,3.4602,3.4604,3.4616,3.4619,3.4607,3.4599,3.4589,3.4541,3.4545,3.4517,3.4507,3.4499,3.4493,3.4468,3.4456,3.4584,3.4584,3.4584,0,0,3.4533,3.4547,3.4537,3.4537,3.4543,3.4528,3.4581,3.4562,3.4551,3.46,3.4572,3.4581,3.4586,3.4547,3.453,3.4551,3.4458,3.4492,3.4485,3.4484,3.4462,3.4449,3.4439,3.4581,3.4581,3.4582,0,0,3.4449,3.4459,3.443,3.4436,3.4446,3.4466,3.4459,3.4476,3.4485,3.4458,3.4495,3.4481,3.446,3.4463,3.4461,3.4381,3.4409,3.4377,3.4324,3.43,3.429,3.4282,3.4253,3.4242,3.4371,3.4371,3.4371,0,3.4395,3.4376,3.4411,3.439,3.4389,3.4436,3.4406,3.441,3.4415,3.4413,3.4437,3.4413,3.442,3.4382,3.4363,3.436,3.4352,3.4375,3.4289,3.4281,3.4273,3.4246,3.4235,3.4367,3.4367,3.4368,3.4368,0,3.4309,3.4295,3.427,3.4277,3.4273,3.4247,3.4277,3.4269,3.4292,3.4308,3.428,3.429,3.4284,3.4277,3.4298,3.4242,3.4255,3.4284,3.4326,3.4257,3.4232,3.4221,3.4361,3.4362,3.4364,3.4365,0,0,3.4179,3.4209,3.4199,3.4203,3.4219,3.4207,3.4184,3.4181,3.4173,3.4175,3.4156,3.4139,3.4166,3.4165,3.4187,3.4166,3.4102,3.4197,3.4198,3.4179,3.404,3.4018,3.4006,3.4121,3.4119,3.4117,3.404,0,3.41,3.4064,3.4096,3.4053,3.404,3.4086,3.4065,3.4072,3.4087,3.4077,3.4093,3.408,3.4117,3.4117,3.4098,3.4113,3.4074,3.4119,3.4102,3.4101,3.4098,3.3993,3.3969,3.3895,3.403,3.4029,3.4028,0,3.4002,3.4003,3.396,3.398,3.3975,3.3957,3.3957,3.3947,3.3956,3.3968,3.3967,3.3996,3.3973,3.4016,3.3985,3.4015,3.401,3.4016,3.4014,3.4012,3.4059,3.3988,3.3872,3.3861,3.4013,3.4014,3.4015,0,3.3912,3.3902,3.3876,3.3878,3.39,3.3886,3.3895,3.3906,3.3902,3.3901,3.3899,3.3895,3.3893,3.3888,3.3914,3.3943,3.388,3.3924,3.3888,3.3888,3.3872,3.3872,3.3753,3.3869,3.387,3.387,3.387,0,3.3819,3.3791,3.3836,3.3819,3.3788,3.3825,3.3793,3.3806,3.3815,3.3801,3.384,3.3825,3.3861,3.385,3.387,3.3841,3.3839,3.3848,3.3853,3.3844,3.3843,3.384,3.3846,3.3867,3.3868,3.3868,3.3869,0,3.3713,3.3742,3.3716,3.374,3.3746,3.3722,3.3743,3.3727,3.3746,3.3727,3.3725,3.3753,3.3742,3.3768,3.376,3.3774,3.3733,3.3747,3.3731,3.3735,3.3697,3.37,3.3572,3.3556,3.3682,3.3681,3.368,0,3.3652,3.3631,3.3655,3.3649,3.3656,3.3646,3.3644,3.3679,3.3674,3.3683,3.3667,3.366,3.3656,3.3636,3.3654,3.3648,3.3662,3.3618,3.3661,3.3653,3.3661,3.3662,3.366,3.3608,3.3607,3.3605,3.3604,0,3.354,3.3556,3.3552,3.3553,3.3549,3.3551,3.3555,3.3548,3.3586,3.3578,3.3569,3.3566,3.3559,3.3551,3.355,3.3557,3.3586,3.3591,3.3582,3.3572,3.3564,3.3568,3.3706,3.3593,3.3594,3.3595,3.3596,3.3596,3.3454,3.3439,3.3454,3.3448,3.3455,3.3459,3.3447,3.3465,3.3458,3.3457,3.3478,3.3464,3.3473,3.3476,3.348,3.3469,3.3489,3.3476,3.3473,3.3469,3.3463,3.3566,3.3468,3.3469,3.3469,3.3469,3.347,0,3.3345,3.3357,3.3352,3.3358,3.3353,3.3384,3.3391,3.3384,3.3372,3.338,3.3376,3.3365,3.3358,3.3377,3.3373,3.336,3.3374,3.3358,3.3359,3.336,3.3445,3.3453,3.3347,3.3347,3.3347,3.3347,3.3347,3.3347,3.3287,3.3263,3.3281,3.326,3.3272,3.3261,3.3262,3.3266,3.3272,3.3259,3.3255,3.3268,3.328,3.3277,3.3272,3.3277,3.3273,3.3253,3.3263,3.3342,3.3354,3.3365,3.3373,3.3252,3.3252,3.3179,3.3178,3.3178]}]]